Content
SEND FEEDBACK

Daily
Averages
Monthly
Summary
United States of America

RICHARDTON, NORTH DAKOTA


Home > North America > United States > North Dakota
Elevation: 752 meters     Latitude: 46 52N     Longitude: 102 19W

WEATHER
 
SELECT A DAY
Number of Records: 195,075;   Date Range: 1/1/95 - 7/7/14
 
SHARE

PRINT THIS DATA

[ ← Previous Day ]
WEATHER ALMANAC - 13 FEBRUARY, 2013
[ Next Day → ]
[ °F ]   °C
Weather ElementAverageHighLow
Temperature1.8 °C5 °C (11:56 am)-1.1 °C (10:56 pm)
Dewpoint-2 °C0.6 °C (8:56 am)-6.7 °C (10:56 pm)
Humidity76.4 %87 % (9:14 am)65 % (1:56 pm)
Barometer1006.4 hPa1011.2 hPa (10:56 pm)1001.4 hPa (8:15 am)
Wind Speed32.5 km/h46.3 km/h (10:17 pm)
Wind Gust66.6 km/h (10:17 pm)
Weather ElementAverage
Visibility16.1 km
Wind DirectionWNW (286.1 °)

Weather ElementTotal
Precipitation---
Heating Degree Days16.4 (Base 18.3)
Averaged from 33 records on 13 February, 2013
WEATHER CONDITIONS BREAKOUT
WIND DIRECTION BREAKOUT
WEATHER BY HOUR - 13 FEBRUARY, 2013
[ °F ]   °C
Local TimeTemperatureDewpointHumidityBarometerVisibilityWind DirectionWind SpeedGust SpeedPrecipitationEventsConditions
1:56 AM0.6 °C-3.3 °C75 %1007.5 hPa16.1 kmWSW (240°)20.4 km/hOvercast
2:56 AM0.6 °C-3.3 °C75 %1006.1 hPa16.1 kmSW (230°)22.2 km/hScattered Clouds
3:56 AM1.1 °C-2.8 °C75 %1005.1 hPa16.1 kmWSW (240°)27.8 km/hOvercast
4:56 AM0.6 °C-2.8 °C78 %1004.7 hPa16.1 kmWSW (250°)22.2 km/hMostly Cloudy
5:56 AM1.1 °C-2.8 °C75 %1004.1 hPa16.1 kmWest (260°)20.4 km/hOvercast
6:56 AM1.7 °C-1.7 °C78 %1003.7 hPa16.1 kmWest (270°)18.5 km/h0 mmOvercast
7:56 AM2.8 °C-1.7 °C73 %1003.4 hPa16.1 kmWest (280°)33.3 km/h0 mmMostly Cloudy
8:15 AM3 °C-1 °C75 %1001.4 hPa16.1 kmWNW (290°)35.2 km/h46.3 km/hMostly Cloudy
8:56 AM2.8 °C0.6 °C86 %1003.7 hPa16.1 kmWNW (290°)31.5 km/hOvercast
9:14 AM2 °C0 °C87 %1001.7 hPa16.1 kmWNW (290°)37 km/h44.4 km/hMostly Cloudy
9:23 AM3 °C0 °C81 %1001.7 hPa16.1 kmWNW (290°)38.9 km/h50.1 km/hMostly Cloudy
9:56 AM3.9 °C-0.6 °C73 %1003.7 hPa16.1 kmWNW (290°)40.7 km/h51.8 km/hPartly Cloudy
10:56 AM4.4 °C-0.6 °C70 %1004.4 hPa16.1 kmWNW (290°)44.4 km/h57.5 km/hClear
11:56 AM5 °C-0.6 °C67 %1004.7 hPa16.1 kmWNW (290°)40.7 km/h53.8 km/hClear
12:56 PM3.3 °C-1.1 °C73 %1005.4 hPa16.1 kmWNW (290°)37 km/h53.8 km/h0 mmSnowLight Snow
1:56 PM4.4 °C-1.7 °C65 %1005.4 hPa16.1 kmWNW (300°)42.6 km/h61.2 km/h0 mmClear
2:56 PM3.9 °C-1.1 °C70 %1006.4 hPa16.1 kmWNW (300°)31.5 km/h46.3 km/hPartly Cloudy
3:56 PM2.8 °C-1.7 °C73 %1007.1 hPa16.1 kmWNW (300°)33.3 km/h44.4 km/hClear
4:14 PM3 °C-2 °C70 %1005.1 hPa16.1 kmWNW (300°)33.3 km/h44.4 km/hMostly Cloudy
4:56 PM2.2 °C-1.1 °C79 %1008.1 hPa16.1 kmNW (310°)33.3 km/h42.6 km/hOvercast
5:56 PM1.7 °C-1.1 °C82 %1009.1 hPa16.1 kmWNW (300°)29.6 km/h38.9 km/h0 mmOvercast
6:56 PM1.1 °C-1.1 °C85 %1009.8 hPa16.1 kmWNW (300°)25.9 km/h40.7 km/hOvercast
7:25 PM1 °C-1 °C87 %1007.8 hPa16.1 kmWNW (290°)22.2 km/hOvercast
7:48 PM1 °C-1 °C87 %1008.1 hPa16.1 kmWNW (300°)29.6 km/hOvercast
7:56 PM0.6 °C-1.7 °C85 %1009.5 hPa16.1 kmWNW (290°)24.1 km/h35.2 km/hMostly Cloudy
8:04 PM1 °C-2 °C81 %1007.5 hPa16.1 kmWNW (300°)31.5 km/h38.9 km/hMostly Cloudy
8:54 PM1 °C-2 °C81 %1007.8 hPa16.1 kmWNW (300°)37 km/h50.1 km/hScattered Clouds
8:56 PM0.6 °C-2.2 °C82 %1010.2 hPa16.1 kmWNW (300°)35.2 km/h50.1 km/hScattered Clouds
9:56 PM0.6 °C-3.3 °C75 %1010.2 hPa16.1 kmWNW (290°)33.3 km/h46.3 km/hScattered Clouds
10:03 PM1 °C-3 °C75 %1008.5 hPa16.1 kmWNW (290°)42.6 km/h55.5 km/hMostly Cloudy
10:17 PM-1 °C-6 °C69 %1008.8 hPa16.1 kmWNW (300°)46.3 km/h66.6 km/hMostly Cloudy
10:56 PM-1.1 °C-6.7 °C66 %1011.2 hPa16.1 kmWNW (290°)33.3 km/h48.1 km/hScattered Clouds
11:56 PM-1.1 °C-6.1 °C69 %1011.2 hPa16.1 kmWNW (290°)38.9 km/h51.8 km/hMostly Cloudy
Hourly data recorded from KDIK, located 0 kilometers away from Richardton, North Dakota







STORIES FROM OUR PARTNERS